When you browse on this site, cookies collect data to enhance your experience and personalize the content and advertising you see.
Visit our Privacy Policy to learn more. By continuing to use the site, you agree to this use of cookies and data.
  • en Suisse
  • Liste des pays
  • À 7 jours
  • Température de l'eau
  • Carte météo
  • Widgets météo
  • user-avatar
    Se connecter

    Météo par heure à Tin'ky

    Ce jour, 24 Février, Lundi

    Heure Température Précipitation Vent Pression Humidité
    00:00 +4°C° 0.6 mm 4 m/s 745 mmHg 89%
    01:00 +3°C° 0.6 mm 5 m/s 744 mmHg 89%
    02:00 +3°C° 0 mm 5 m/s 743 mmHg 90%
    03:00 +3°C° 0.3 mm 6 m/s 741 mmHg 90%
    04:00 +3°C° 0.3 mm 7 m/s 740 mmHg 90%
    05:00 +2°C° 0.3 mm 8 m/s 738 mmHg 89%
    06:00 +2°C° 0.8 mm 8 m/s 737 mmHg 89%
    07:00 +4°C° 0.8 mm 8 m/s 735 mmHg 88%
    08:00 +4°C° 0.8 mm 8 m/s 734 mmHg 87%
    09:00 +4°C° 0.3 mm 8 m/s 733 mmHg 83%
    10:00 +5°C° 0.3 mm 7 m/s 732 mmHg 79%
    11:00 +5°C° 0.3 mm 6 m/s 732 mmHg 74%
    12:00 +3°C° 0.8 mm 9 m/s 732 mmHg 81%
    13:00 0°C° 0.8 mm 12 m/s 733 mmHg 87%
    14:00 -3°C° 0.8 mm 15 m/s 734 mmHg 93%
    15:00 -1°C° 0.7 mm 14 m/s 735 mmHg 85%
    16:00 -1°C° 0.7 mm 13 m/s 737 mmHg 76%
    17:00 0°C° 0.7 mm 12 m/s 738 mmHg 68%
    18:00 0°C° 0 mm 12 m/s 740 mmHg 71%
    19:00 -1°C° 0 mm 12 m/s 741 mmHg 74%
    20:00 -1°C° 0 mm 11 m/s 742 mmHg 76%
    21:00 -1°C° 0 mm 11 m/s 743 mmHg 76%
    22:00 0°C° 0 mm 10 m/s 744 mmHg 75%
    23:00 0°C° 0 mm 10 m/s 745 mmHg 74%

    Demain, 25 Février, Mardi

    Heure Température Précipitation Vent Pression Humidité
    00:00 -1°C° 0 mm 9 m/s 746 mmHg 74%
    01:00 -1°C° 0 mm 9 m/s 747 mmHg 75%
    02:00 -2°C° 0 mm 8 m/s 748 mmHg 75%
    03:00 -2°C° 0 mm 7 m/s 748 mmHg 77%
    04:00 -3°C° 0 mm 6 m/s 749 mmHg 79%
    05:00 -2°C° 0 mm 5 m/s 749 mmHg 80%
    06:00 -2°C° 0 mm 5 m/s 749 mmHg 80%
    07:00 -2°C° 0 mm 5 m/s 750 mmHg 79%
    08:00 -2°C° 0 mm 4 m/s 750 mmHg 79%
    09:00 0°C° 0 mm 4 m/s 750 mmHg 73%
    10:00 +1°C° 0 mm 4 m/s 750 mmHg 68%
    11:00 +2°C° 0 mm 5 m/s 750 mmHg 62%
    12:00 +2°C° 0 mm 5 m/s 749 mmHg 61%
    13:00 +3°C° 0 mm 5 m/s 749 mmHg 59%
    14:00 +4°C° 0 mm 6 m/s 749 mmHg 58%
    15:00 +5°C° 0 mm 5 m/s 748 mmHg 60%
    16:00 +3°C° 0 mm 5 m/s 748 mmHg 63%
    17:00 +4°C° 0 mm 4 m/s 747 mmHg 65%
    18:00 +4°C° 0 mm 4 m/s 747 mmHg 67%
    19:00 +3°C° 0 mm 5 m/s 746 mmHg 69%
    20:00 +2°C° 0 mm 5 m/s 746 mmHg 70%
    21:00 +2°C° 0 mm 5 m/s 746 mmHg 71%
    22:00 +2°C° 0 mm 5 m/s 745 mmHg 73%
    23:00 +2°C° 0 mm 5 m/s 745 mmHg 74%

    Après-demain, 26 Février, Mercredi

    Heure Température Précipitation Vent Pression Humidité
    00:00 +2°C° 0 mm 5 m/s 745 mmHg 73%
    01:00 +2°C° 0 mm 5 m/s 745 mmHg 72%
    02:00 +2°C° 0 mm 5 m/s 744 mmHg 71%
    03:00 +2°C° 0 mm 5 m/s 744 mmHg 74%
    04:00 +1°C° 0 mm 6 m/s 743 mmHg 77%
    05:00 +1°C° 0 mm 6 m/s 743 mmHg 81%
    06:00 +1°C° 0 mm 6 m/s 743 mmHg 83%
    07:00 +1°C° 0 mm 6 m/s 742 mmHg 85%
    08:00 +2°C° 0 mm 6 m/s 742 mmHg 88%
    09:00 +3°C° 0 mm 7 m/s 742 mmHg 83%
    10:00 +4°C° 0 mm 7 m/s 741 mmHg 79%
    11:00 +6°C° 0 mm 7 m/s 741 mmHg 74%
    12:00 +8°C° 0 mm 7 m/s 740 mmHg 71%
    13:00 +9°C° 0 mm 7 m/s 740 mmHg 68%
    14:00 +10°C° 0 mm 6 m/s 739 mmHg 64%
    15:00 +9°C° 0 mm 6 m/s 739 mmHg 67%
    16:00 +9°C° 0 mm 5 m/s 739 mmHg 69%
    17:00 +8°C° 0 mm 4 m/s 738 mmHg 71%
    18:00 +8°C° 0 mm 4 m/s 739 mmHg 74%
    19:00 +7°C° 0 mm 5 m/s 739 mmHg 76%
    20:00 +7°C° 0 mm 5 m/s 739 mmHg 78%
    21:00 +6°C° 0 mm 5 m/s 739 mmHg 79%
    22:00 +5°C° 0 mm 6 m/s 738 mmHg 79%
    23:00 +5°C° 0 mm 6 m/s 738 mmHg 80%

    27 Février, Jeudi

    Heure Température Précipitation Vent Pression Humidité
    00:00 +4°C° 0 mm 6 m/s 738 mmHg 82%
    01:00 +4°C° 0 mm 6 m/s 738 mmHg 85%
    02:00 +4°C° 0 mm 6 m/s 738 mmHg 87%
    03:00 +4°C° 0 mm 6 m/s 738 mmHg 89%
    04:00 +4°C° 0 mm 6 m/s 737 mmHg 91%
    05:00 +3°C° 0 mm 6 m/s 737 mmHg 93%
    06:00 +4°C° 0 mm 6 m/s 737 mmHg 93%
    07:00 +5°C° 0 mm 5 m/s 737 mmHg 92%
    08:00 +5°C° 0 mm 5 m/s 737 mmHg 92%
    09:00 +6°C° 0 mm 5 m/s 737 mmHg 87%
    10:00 +7°C° 0 mm 5 m/s 737 mmHg 82%
    11:00 +8°C° 0 mm 4 m/s 738 mmHg 77%
    12:00 +10°C° 0 mm 4 m/s 738 mmHg 75%
    13:00 +10°C° 0 mm 4 m/s 738 mmHg 73%
    14:00 +10°C° 0 mm 4 m/s 738 mmHg 71%
    15:00 +8°C° 0.2 mm 4 m/s 738 mmHg 76%
    16:00 +7°C° 0.2 mm 4 m/s 738 mmHg 82%
    17:00 +6°C° 0.2 mm 4 m/s 738 mmHg 87%
    18:00 +5°C° 0.3 mm 4 m/s 738 mmHg 87%
    19:00 +5°C° 0.3 mm 4 m/s 738 mmHg 86%
    20:00 +5°C° 0.3 mm 5 m/s 738 mmHg 86%
    21:00 +3°C° 1.4 mm 5 m/s 738 mmHg 86%
    22:00 +3°C° 1.4 mm 6 m/s 737 mmHg 86%
    23:00 +2°C° 1.4 mm 6 m/s 737 mmHg 86%

    28 Février, Vendredi

    Heure Température Précipitation Vent Pression Humidité
    00:00 +2°C° 1.8 mm 7 m/s 736 mmHg 89%
    01:00 0°C° 1.8 mm 8 m/s 735 mmHg 92%
    02:00 -1°C° 1.8 mm 8 m/s 735 mmHg 96%
    03:00 -1°C° 2.4 mm 9 m/s 735 mmHg 96%
    04:00 -3°C° 2.4 mm 10 m/s 735 mmHg 97%
    05:00 -4°C° 2.4 mm 11 m/s 735 mmHg 97%
    06:00 -4°C° 1.2 mm 11 m/s 735 mmHg 95%
    07:00 -6°C° 1.2 mm 11 m/s 736 mmHg 92%
    08:00 -6°C° 1.2 mm 11 m/s 737 mmHg 90%
    09:00 -6°C° 0.1 mm 11 m/s 738 mmHg 84%
    10:00 -4°C° 0.1 mm 10 m/s 739 mmHg 78%
    11:00 -4°C° 0.1 mm 10 m/s 740 mmHg 72%
    12:00 -3°C° 0 mm 9 m/s 741 mmHg 70%
    13:00 -2°C° 0 mm 8 m/s 742 mmHg 68%
    14:00 -2°C° 0 mm 7 m/s 743 mmHg 66%
    15:00 -2°C° 0 mm 6 m/s 743 mmHg 69%
    16:00 -1°C° 0 mm 5 m/s 744 mmHg 72%
    17:00 -1°C° 0 mm 4 m/s 744 mmHg 76%
    18:00 0°C° 0 mm 3 m/s 745 mmHg 78%
    19:00 -1°C° 0 mm 3 m/s 745 mmHg 81%
    20:00 -1°C° 0 mm 3 m/s 745 mmHg 83%
    21:00 -1°C° 0.1 mm 3 m/s 745 mmHg 87%
    22:00 -1°C° 0.1 mm 2 m/s 745 mmHg 91%
    23:00 +1°C° 0.1 mm 1 m/s 745 mmHg 95%

    29 Février, Samedi

    Heure Température Précipitation Vent Pression Humidité
    00:00 -1°C° 0.7 mm 2 m/s 745 mmHg 94%
    01:00 -1°C° 0.7 mm 3 m/s 744 mmHg 94%
    02:00 -3°C° 0.7 mm 4 m/s 744 mmHg 93%
    03:00 -4°C° 0.3 mm 5 m/s 744 mmHg 89%
    04:00 -4°C° 0.3 mm 5 m/s 745 mmHg 84%
    05:00 -5°C° 0.3 mm 6 m/s 745 mmHg 80%
    06:00 -5°C° 0 mm 6 m/s 745 mmHg 78%
    07:00 -6°C° 0 mm 6 m/s 746 mmHg 76%
    08:00 -7°C° 0 mm 7 m/s 747 mmHg 74%
    09:00 -7°C° 0 mm 7 m/s 747 mmHg 69%
    10:00 -6°C° 0 mm 7 m/s 748 mmHg 65%
    11:00 -6°C° 0 mm 7 m/s 748 mmHg 61%
    12:00 -4°C° 0 mm 7 m/s 748 mmHg 61%
    13:00 -4°C° 0 mm 7 m/s 749 mmHg 60%
    14:00 -3°C° 0 mm 7 m/s 749 mmHg 59%
    15:00 -3°C° 0 mm 6 m/s 749 mmHg 62%
    16:00 -4°C° 0 mm 5 m/s 749 mmHg 65%
    17:00 -3°C° 0 mm 4 m/s 750 mmHg 67%
    18:00 -4°C° 0 mm 4 m/s 750 mmHg 70%
    19:00 -4°C° 0 mm 4 m/s 751 mmHg 72%
    20:00 -5°C° 0 mm 4 m/s 751 mmHg 74%
    21:00 -5°C° 0 mm 4 m/s 752 mmHg 75%
    22:00 -7°C° 0 mm 4 m/s 752 mmHg 76%
    23:00 -7°C° 0 mm 4 m/s 752 mmHg 77%
    Voir plus